Temp
16 16 17 17 17 17 17 18 18 18 18 18 18 18 19 19 19 19 19 19 19 19 19 19 20 20 20 20 20 20 20 20 20 19 18 17 18 18 18 19 20 20 20 20 20 21 20 20 19 20 22 21 19 19 19 19 17 19 19 18 18 18 17 18 17 16 17 17 16 13 13 14 13 10 9 9 8 8 8 7 7 7 7 7 7 8 8 8
16 17 17 17 17 17 18 18 18 18 18 18 18 18 19 19 19 19 19 19 19 19 19 19 20 20 20 20 20 20 20 20 20 18 18 18 18 18 19 20 20 21 21 21 20 20 20 20 18 19 21 21 19 19 20 18 18 19 17 17 18 18 17 17 17 16 16 17 16 13 12 13 14 11 10 11 9 7 8 7 7 7 7 7 7 7 7 7
16 17 17 17 17 18 18 18 18 18 18 18 18 19 19 19 19 19 19 19 19 19 19 19 19 20 20 20 20 20 20 20 19 18 18 18 19 19 19 20 20 20 21 20 20 19 20 19 17 19 21 21 18 19 20 18 18 17 16 19 19 17 17 15 16 16 16 16 15 14 12 12 12 10 10 11 9 8 8 7 7 7 7 7 7 6 7 7
16 17 17 17 18 18 18 18 18 18 18 18 18 19 19 19 19 19 19 19 20 19 20 19 19 20 20 20 20 20 20 19 19 18 19 19 19 19 19 20 20 20 20 20 20 19 19 18 17 19 20 20 19 18 19 18 18 17 17 19 18 16 17 16 16 15 14 14 15 14 12 12 11 10 10 10 10 9 8 8 8 8 7 7 7 6 6 6
17 17 17 17 18 18 18 18 18 18 18 18 19 19 19 20 19 19 19 19 20 20 20 20 20 20 20 20 20 20 20 19 18 18 19 19 19 19 19 19 20 20 20 20 20 19 19 17 17 19 20 20 19 19 19 16 16 18 17 17 16 15 17 17 15 14 13 13 14 13 13 13 11 10 10 10 13 12 10 8 8 7 7 7 6 6 6 5
17 17 17 18 18 18 18 18 18 18 18 19 19 19 20 20 19 19 19 20 20 20 20 20 20 20 20 20 19 20 20 19 18 18 19 19 19 19 19 19 19 20 20 21 20 19 19 19 19 20 19 19 18 18 18 15 15 18 18 16 15 15 16 17 15 15 13 14 14 14 13 12 11 11 9 9 12 11 9 8 7 7 6 7 6 5 5 5
17 17 18 18 18 18 18 18 18 19 19 19 19 20 20 20 19 19 19 20 20 20 21 21 21 21 20 20 20 19 19 18 18 18 19 19 19 19 19 19 19 20 21 20 20 19 19 20 20 19 19 19 17 17 17 15 16 18 18 16 15 14 16 17 15 14 14 15 14 12 13 12 13 12 9 9 10 8 7 6 6 5 6 6 6 5 5 5
17 18 18 18 18 18 18 19 19 19 19 19 19 20 20 20 20 20 20 20 20 20 20 21 21 21 21 20 20 19 17 18 18 18 19 19 20 19 19 19 19 20 20 19 18 19 19 20 19 17 19 18 17 17 16 16 18 18 17 16 15 15 16 16 14 14 14 14 12 11 13 12 12 11 10 10 8 7 6 5 5 5 5 5 6 6 4 3
18 18 18 18 18 18 18 19 18 19 19 19 19 20 20 20 20 20 20 20 20 20 20 21 21 20 21 19 18 19 17 18 19 18 19 20 20 20 20 19 19 20 19 18 18 19 19 19 18 17 19 17 16 17 15 17 18 16 16 16 16 15 15 15 14 14 14 13 11 13 14 12 9 9 11 10 7 7 6 6 6 5 6 6 7 5 3 3
18 18 18 18 18 18 18 18 18 18 19 19 20 20 20 20 20 20 20 20 20 20 20 20 21 20 21 19 18 18 18 18 19 18 19 20 20 20 20 20 20 20 19 18 18 18 18 18 17 16 18 17 16 16 14 16 16 14 15 16 16 16 15 15 15 14 14 13 12 14 14 11 9 10 12 10 6 7 6 6 6 6 7 6 6 5 3 3
18 18 18 18 18 18 18 18 18 18 19 19 20 20 20 20 20 20 20 20 20 20 20 20 20 20 20 18 18 18 18 19 18 19 19 20 21 20 20 20 20 20 19 18 18 16 17 17 15 15 18 18 17 16 15 15 15 14 16 17 16 16 16 15 15 14 13 14 12 13 13 10 9 10 12 9 6 6 6 6 6 6 7 6 6 5 4 4
18 18 18 18 18 18 18 18 18 19 19 20 20 20 20 20 20 20 20 20 20 20 20 20 20 20 20 18 17 18 19 19 18 19 20 20 21 20 20 20 20 20 19 18 17 17 17 16 16 18 18 17 17 17 16 14 14 15 15 17 17 16 17 16 16 14 13 14 12 12 13 11 10 11 11 9 6 6 6 6 6 6 6 5 6 5 4 4
18 18 18 18 18 19 19 18 18 19 19 20 20 20 20 20 20 20 20 21 21 20 20 21 20 20 20 18 18 19 19 19 18 20 21 21 21 20 20 20 20 20 20 19 18 18 19 18 18 18 16 17 17 16 15 14 14 15 14 15 16 16 17 16 14 13 13 14 12 13 14 13 12 12 10 8 6 6 6 6 6 6 6 5 5 5 5 4
18 18 18 19 19 19 19 19 19 19 19 20 20 20 20 20 20 20 20 21 21 21 21 21 21 20 19 18 19 19 19 19 19 20 20 21 21 21 21 21 20 20 20 19 19 19 19 19 18 16 14 15 15 14 15 15 14 15 15 14 13 15 17 16 13 13 15 13 12 14 14 13 14 13 10 7 6 6 6 6 5 5 5 5 5 5 6 4
18 18 18 19 19 19 19 19 19 20 20 20 20 20 21 20 20 20 21 21 21 21 21 21 21 20 19 18 19 19 19 19 19 18 19 20 20 21 21 21 20 20 20 19 19 19 18 19 18 16 15 13 13 16 16 16 14 13 15 16 12 13 16 15 13 13 15 13 11 13 13 12 14 13 10 7 6 6 6 6 5 5 5 5 5 5 6 5
18 19 19 19 19 20 20 19 19 20 20 20 20 20 21 21 21 21 21 21 21 21 21 21 20 20 20 19 19 19 18 18 19 18 18 19 19 19 20 21 20 19 20 19 19 19 18 18 15 13 14 14 14 16 16 16 16 13 14 17 15 13 14 14 14 12 13 13 12 13 13 13 13 12 8 6 7 6 6 6 5 5 5 4 5 5 6 5
18 19 18 19 19 20 20 20 20 20 21 21 20 20 20 21 21 21 21 21 21 21 21 21 19 19 20 19 19 18 17 17 18 18 18 18 18 19 19 20 19 18 19 19 20 19 16 15 13 12 14 13 12 15 17 17 17 15 13 14 14 13 12 13 15 12 11 13 13 13 12 12 13 12 8 7 7 6 6 6 5 5 5 4 5 5 5 5
19 18 19 19 19 20 20 20 21 21 21 21 21 20 20 21 21 21 21 21 21 21 21 20 19 20 20 19 18 17 17 17 18 17 17 18 18 18 18 18 16 16 19 19 18 17 15 14 14 15 15 13 12 15 17 16 15 15 14 14 13 11 11 12 13 12 11 12 12 12 12 12 12 12 10 7 6 6 6 6 5 5 5 4 4 5 5 5
19 18 19 19 20 20 20 20 20 21 21 21 22 21 21 21 21 21 20 20 20 20 20 18 17 19 19 18 16 17 17 17 18 17 17 17 18 18 17 16 15 17 19 19 18 15 13 15 16 17 16 14 13 13 14 14 13 13 12 11 12 11 11 11 12 11 10 11 11 11 11 11 11 11 11 9 7 6 6 6 5 5 4 4 4 5 4 4
19 19 19 19 20 20 20 20 20 21 22 22 21 21 21 21 21 20 17 17 16 16 17 17 16 17 17 17 16 17 18 18 18 16 17 17 17 18 16 15 17 18 16 16 17 13 12 17 17 15 15 13 12 11 11 11 10 11 11 10 10 10 10 11 12 11 9 10 11 11 12 11 11 11 11 10 7 6 6 6 5 5 4 4 4 4 4 3
19 20 20 20 20 20 20 20 21 21 22 22 21 21 20 19 20 19 17 15 14 13 16 16 15 16 17 16 16 16 16 18 17 16 17 17 16 18 17 16 19 19 14 12 14 13 13 17 16 14 13 12 11 10 10 10 10 10 10 11 10 10 10 11 12 11 10 10 11 12 12 11 11 11 10 8 7 6 6 6 5 4 4 4 4 4 3 3
20 20 20 20 20 20 20 20 21 22 22 22 21 18 16 16 17 18 17 18 16 14 15 15 15 16 16 16 16 15 15 17 17 16 16 17 16 17 16 16 17 17 13 12 15 16 16 17 15 13 11 10 10 9 10 11 11 11 10 11 11 11 11 11 12 11 10 10 12 11 10 10 10 9 8 7 6 7 6 6 5 4 4 4 4 3 3 3
20 20 20 20 20 20 20 20 21 21 22 22 20 16 15 16 17 17 18 19 18 15 15 16 16 16 17 17 16 16 16 15 16 16 15 16 16 14 15 15 16 15 14 14 16 17 16 16 13 11 10 11 12 10 11 12 12 12 11 11 12 11 11 12 13 12 10 10 11 10 9 9 9 8 7 5 5 6 6 5 5 4 5 4 3 3 3 3
20 20 20 21 20 21 21 20 21 21 20 20 18 16 16 17 17 17 17 17 18 17 15 15 15 16 16 16 16 16 16 15 14 16 15 15 15 13 14 14 14 16 14 13 14 15 17 14 10 10 11 11 13 12 12 13 12 12 11 11 12 12 12 12 12 10 9 9 8 9 10 10 10 9 8 6 5 5 4 4 4 4 4 3 3 3 3 3
20 20 20 20 21 21 21 21 20 19 19 18 17 17 17 18 17 18 18 17 18 18 16 15 15 16 16 16 16 15 15 15 15 15 15 13 14 14 14 12 13 16 14 12 13 15 16 12 9 12 13 12 13 14 13 12 12 11 12 12 12 12 11 10 9 9 10 10 8 9 10 10 11 10 8 6 5 5 4 4 4 3 3 3 3 3 3 3
20 20 20 21 21 21 21 21 19 19 19 17 17 17 17 18 17 17 19 19 19 18 17 18 17 17 17 15 13 12 15 17 15 14 15 14 13 14 14 13 13 15 13 12 13 14 14 11 10 13 13 13 14 14 12 11 11 11 12 12 11 10 10 10 9 8 10 10 9 9 9 9 10 11 8 5 5 5 4 4 3 3 3 3 3 2 2 2
20 20 20 21 21 21 22 21 19 19 19 17 17 17 17 17 18 18 19 20 19 17 17 18 18 18 18 14 12 14 17 17 15 14 14 14 13 13 15 15 13 13 11 12 15 14 13 13 13 13 13 14 14 14 12 10 11 12 11 10 10 10 10 9 9 8 9 9 8 9 9 8 9 9 6 5 5 5 4 4 3 3 3 2 2 2 2 2
20 20 20 20 20 21 21 20 20 19 18 18 17 17 17 17 18 18 20 20 18 17 17 17 18 18 16 13 12 16 16 15 16 16 13 14 13 13 15 14 14 14 10 12 16 15 12 14 14 13 13 13 14 14 12 10 11 12 10 8 9 10 9 9 8 8 7 7 8 9 8 8 9 8 5 4 5 5 4 4 3 3 2 2 2 2 2 1
20 20 20 20 20 20 20 20 20 18 18 18 18 18 18 18 18 18 20 19 17 17 17 16 18 17 14 14 15 14 14 14 15 14 13 14 14 13 14 12 12 13 10 11 15 14 12 12 11 12 13 13 13 13 11 11 12 11 9 9 9 9 8 8 7 8 7 7 9 10 9 8 9 10 7 6 6 5 4 4 3 3 2 2 2 2 1 1
20 20 20 20 20 20 20 20 19 18 18 17 18 18 18 18 18 20 20 18 17 17 15 16 16 14 12 16 17 14 14 14 12 12 12 13 13 12 11 10 10 13 13 12 14 14 12 9 9 11 12 11 11 11 10 10 10 10 10 10 11 10 9 7 6 7 8 9 9 10 9 8 8 10 9 6 5 5 4 3 3 3 2 1 2 1 1 0
19 20 20 20 20 19 20 19 18 18 17 18 18 17 18 18 18 20 19 17 17 16 15 15 14 12 12 14 15 13 13 13 12 12 13 11 11 11 11 11 11 13 15 14 12 13 12 10 10 11 10 9 11 11 10 8 7 9 11 10 11 10 9 8 8 8 9 10 10 9 9 8 8 9 7 3 3 3 4 3 3 3 2 2 1 1 0 -0
19 19 19 20 19 19 19 18 18 18 17 18 17 16 18 19 18 18 17 16 17 15 14 14 12 12 12 12 13 12 12 13 13 11 11 11 10 9 9 10 10 12 14 13 11 12 13 12 11 10 10 10 11 12 11 10 9 10 10 9 10 10 9 9 9 9 9 9 10 9 8 7 8 8 4 2 3 3 4 4 3 3 2 2 1 -0 -1 -1
18 18 18 18 18 18 18 17 17 18 17 18 18 17 19 21 18 15 15 16 16 13 12 12 11 11 11 13 14 11 11 13 13 11 10 10 11 9 8 8 8 12 13 12 11 11 13 13 12 12 11 10 11 12 11 11 11 10 9 9 10 9 8 8 8 8 9 9 10 9 7 7 9 7 3 2 3 3 3 3 2 2 2 1 -0 -1 -1 -1
18 18 18 18 18 17 17 17 17 17 17 17 19 20 20 20 17 14 14 15 13 11 11 11 11 12 12 14 13 10 12 13 11 12 12 12 12 11 10 9 9 10 11 11 11 10 12 13 13 13 12 10 11 11 10 10 10 9 8 9 9 9 8 7 8 8 8 8 9 8 7 8 9 6 2 2 3 3 3 2 1 1 0 0 -1 -1 -1 -1
18 18 18 18 17 17 17 17 17 17 17 18 19 20 20 18 15 14 15 14 11 12 11 10 12 15 15 14 11 10 12 13 11 12 13 12 12 11 11 10 8 9 10 11 10 9 11 12 12 12 10 10 11 10 8 10 10 8 7 9 9 9 9 8 8 8 7 6 6 7 7 7 6 3 2 2 2 2 2 1 0 -0 -1 -1 -1 -1 -2 -2
18 18 18 17 17 17 17 17 17 17 17 19 21 19 17 15 14 14 13 11 11 11 12 12 13 16 16 14 13 12 11 12 12 12 13 11 10 10 10 9 8 8 10 10 10 9 11 12 12 11 10 10 10 9 9 10 11 9 8 10 9 8 8 8 8 7 6 5 6 7 8 7 5 3 2 3 2 2 2 0 -1 -1 -1 -1 -2 -2 -2 -2
18 18 17 16 16 17 17 16 17 17 17 20 20 16 13 12 12 11 10 9 9 8 12 16 14 14 15 14 15 14 12 12 12 13 13 12 11 10 10 8 7 7 8 9 9 9 9 10 11 10 11 10 7 8 9 8 9 10 9 10 9 7 8 7 6 6 6 5 6 7 7 7 6 5 3 3 2 1 1 -0 -1 -1 -2 -2 -2 -2 -2 -2
18 17 17 16 17 17 16 17 17 16 17 18 16 13 11 11 9 8 8 8 8 9 13 16 14 13 13 13 14 13 12 13 13 12 13 12 12 11 9 9 8 7 6 7 8 9 8 9 10 9 10 10 8 8 10 7 7 8 9 8 8 7 8 6 5 6 5 5 6 7 7 7 7 6 3 2 1 1 0 -0 -1 -1 -2 -2 -2 -1 -1 -1
18 18 18 16 16 17 17 17 16 17 19 18 14 12 11 11 9 7 7 8 8 11 14 14 12 12 12 12 13 12 10 12 13 12 12 12 12 11 9 8 8 7 6 6 8 8 7 9 10 8 8 10 10 10 11 9 8 7 8 8 7 7 8 7 6 6 5 4 5 5 6 6 6 5 3 1 0 0 -0 -1 -1 -1 -1 -1 -1 -1 -1 -1
17 19 19 16 16 17 17 17 15 16 18 15 12 12 10 10 9 7 6 7 9 11 13 12 11 13 13 12 11 11 10 11 11 11 12 11 11 11 8 7 8 7 5 5 7 7 7 8 9 9 9 9 10 10 10 9 9 8 8 8 8 8 8 6 5 6 5 5 4 4 4 5 5 3 2 1 0 -0 -1 -1 -1 -1 -1 -1 -1 -1 -1 -1
16 20 19 16 16 17 17 18 13 12 13 11 10 11 10 10 10 8 6 6 8 9 10 11 11 12 13 12 11 10 10 11 10 11 12 11 11 12 8 5 6 7 6 7 7 7 7 8 7 8 8 9 11 10 9 8 8 8 8 8 8 7 6 5 5 5 5 4 4 3 3 5 4 3 1 1 0 -0 -1 -1 -1 -1 -1 -1 -1 -1 -1 -1
17 20 18 16 17 16 17 16 10 7 11 11 10 10 9 10 10 9 7 6 8 9 9 10 10 10 11 11 11 10 10 11 11 11 12 11 11 11 7 3 4 5 6 8 7 6 6 6 6 6 7 9 10 8 6 6 7 8 7 7 7 6 6 5 4 4 4 4 4 3 3 4 4 2 1 1 -0 -0 -1 -1 -1 -1 -1 -1 -1 -1 -1 -2
19 20 18 17 17 16 17 16 11 9 10 9 8 8 8 9 10 9 9 8 9 10 10 11 10 10 11 10 10 10 10 11 12 11 11 11 10 8 4 3 3 4 6 8 7 6 6 6 6 7 7 9 9 7 6 6 7 8 7 6 6 6 5 5 4 3 3 2 3 3 3 4 3 2 2 1 0 -0 -0 -1 -1 -1 -1 -1 -1 -1 -1 -2
18 17 17 17 18 18 19 18 15 12 10 9 10 10 8 9 9 10 10 10 10 10 12 12 10 10 10 9 9 10 11 12 12 11 10 11 9 5 2 3 4 5 6 6 6 6 7 7 7 7 7 8 8 8 7 7 7 8 7 6 6 5 5 4 3 2 2 3 4 3 3 5 5 4 4 2 -0 -1 -1 -1 -1 -1 -1 -1 -1 -2 -2 -2
17 17 17 17 16 15 15 14 14 13 11 11 12 11 10 10 9 9 10 10 8 8 11 11 9 9 9 8 9 10 9 11 12 10 9 10 9 4 2 3 3 4 4 3 3 5 7 7 7 7 7 7 7 7 8 8 7 7 7 6 5 5 4 4 3 2 2 3 3 2 2 4 5 5 3 1 -1 -1 -1 -1 -1 -1 -1 -1 -2 -2 -2 -3
19 19 19 19 14 12 10 8 11 14 13 13 14 11 11 13 10 8 8 10 8 7 9 10 8 9 10 10 11 11 10 10 10 10 10 10 10 6 2 2 3 3 2 1 2 4 6 6 6 7 7 7 7 8 8 8 6 5 6 5 5 4 3 3 2 2 2 2 2 3 3 2 3 3 1 -1 -1 -1 -1 -1 -1 -1 -1 -2 -2 -2 -3 -3
19 19 17 18 17 15 14 10 11 14 13 13 14 12 11 13 12 10 9 9 8 8 9 10 9 10 11 10 11 11 10 9 9 10 9 8 9 6 2 2 3 2 1 2 2 4 6 6 6 6 7 7 7 7 7 6 5 5 5 4 5 4 3 2 2 2 3 1 1 3 3 1 2 1 -1 -1 -1 -1 -1 -1 -1 -2 -2 -2 -2 -3 -3 -4
16 16 11 13 16 16 16 13 11 12 12 11 11 11 12 13 12 12 11 9 8 8 10 11 10 10 10 9 10 11 11 10 10 10 9 7 7 7 5 4 3 2 2 3 3 4 6 6 5 5 5 6 6 5 5 5 4 5 4 4 4 3 3 3 2 2 2 1 1 2 2 1 1 -0 -2 -1 -1 -2 -1 -1 -2 -2 -2 -2 -3 -4 -5 -5
13 14 10 9 13 13 11 10 10 12 13 11 11 11 13 14 14 12 10 10 11 10 10 13 13 10 9 8 9 11 11 11 11 9 8 7 6 7 8 7 5 3 3 4 3 3 5 6 4 3 4 5 4 5 5 5 4 4 4 4 3 3 3 2 2 2 2 1 2 2 1 1 0 -1 -1 -1 -1 -1 -1 -2 -2 -2 -3 -3 -4 -5 -5 -5
15 17 13 12 12 10 9 9 11 15 14 11 13 13 11 13 14 11 9 11 14 12 10 12 13 10 9 8 9 10 10 10 10 9 7 7 6 7 7 7 6 4 4 5 3 3 5 6 4 2 3 4 5 5 5 5 4 3 3 3 2 2 2 1 1 1 1 1 1 1 -0 -1 -1 -1 -1 -1 -1 -2 -2 -2 -2 -3 -3 -4 -5 -5 -5 -6
14 14 14 16 15 10 10 11 10 15 16 13 14 13 11 13 13 11 11 9 10 12 11 11 12 9 8 7 8 10 9 8 9 8 7 7 7 7 7 6 5 5 5 5 3 3 4 4 3 3 3 4 6 6 5 4 4 3 2 2 1 1 1 1 1 1 1 1 0 -1 -3 -3 -1 -1 -1 -2 -2 -2 -2 -3 -3 -3 -4 -4 -5 -6 -6 -6
13 13 12 17 16 10 10 12 11 14 16 13 12 11 11 12 9 10 13 10 8 9 9 9 10 9 9 10 9 9 7 6 6 6 5 5 5 5 5 4 4 4 5 4 3 2 3 3 3 3 3 4 6 5 4 4 4 3 1 1 1 1 1 1 1 1 1 0 -2 -3 -3 -2 -2 -2 -2 -2 -2 -3 -3 -3 -3 -4 -5 -5 -6 -6 -6 -7
Height
821 821 820 820 819 819 818 818 817 816 816 814 814 813 813 813 812 811 811 810 809 808 808 808 807 807 808 807 807 807 807 806 805 804 805 808 809 807 805 802 801 799 798 797 796 796 796 796 795 795 795 796 799 799 798 799 801 802 809 816 816 820 819 814 816 818 816 814 817 822 823 821 824 831 832 832 835 837 837 838 837 836 836 836 836 836 837 837
821 821 821 820 819 819 819 818 817 816 816 815 814 814 813 813 812 812 811 810 809 809 808 807 807 807 807 807 807 807 807 807 806 805 808 809 808 806 805 802 801 799 798 797 797 796 796 797 796 796 797 798 801 800 799 801 802 807 816 818 815 817 815 813 813 814 815 813 816 821 823 821 820 827 829 829 837 839 836 840 841 839 839 838 837 837 837 837
821 821 821 820 820 819 819 818 817 816 816 815 814 814 814 813 812 812 811 810 809 809 809 808 807 807 807 807 807 807 807 807 807 808 809 809 808 806 804 802 801 800 799 798 797 797 796 797 797 798 799 800 803 802 801 803 805 811 816 813 812 814 814 815 814 814 814 813 816 820 823 823 822 827 827 828 836 839 836 838 840 840 839 838 838 837 836 836
821 821 821 820 820 819 819 818 817 816 816 815 815 814 814 813 812 812 811 811 810 809 809 808 808 807 808 807 807 808 807 809 812 812 811 809 808 806 804 802 801 800 799 798 797 797 796 797 797 798 800 802 805 805 804 806 806 811 813 810 812 815 813 813 813 814 816 816 816 820 823 823 825 827 827 829 832 834 834 833 832 834 836 836 836 837 836 836
821 821 821 820 820 819 819 818 817 817 816 815 815 814 814 813 813 812 811 811 810 810 809 809 809 808 809 806 806 807 808 816 817 813 811 810 808 806 805 803 801 799 799 798 797 797 796 797 797 799 802 803 805 805 806 809 809 809 811 812 814 815 812 811 813 815 817 818 818 820 821 821 825 826 827 827 821 820 824 826 828 830 832 834 835 835 836 835
821 821 821 820 820 819 818 818 817 817 816 815 815 814 814 813 813 812 812 811 810 810 809 809 809 809 809 807 807 806 811 821 820 813 812 810 808 807 805 803 801 799 798 797 797 797 797 798 798 801 804 806 809 808 808 811 811 809 811 814 815 816 812 810 813 814 817 817 816 818 817 821 825 823 827 826 817 818 821 823 827 829 831 832 833 834 835 835
822 821 821 820 820 819 818 818 817 816 816 815 815 814 814 813 813 812 812 811 811 810 809 809 808 809 809 808 808 808 813 820 818 814 813 810 809 807 805 804 802 799 798 797 797 797 799 799 800 805 807 809 812 811 811 812 811 809 810 812 814 816 812 810 813 815 816 814 814 818 817 819 819 818 825 825 820 823 823 823 826 828 830 831 832 834 834 834
822 821 821 820 820 819 818 818 817 816 816 815 814 814 814 813 813 813 812 812 811 811 809 808 808 808 809 809 809 812 817 819 817 815 813 810 809 808 806 804 802 800 798 798 799 799 800 801 804 808 808 811 813 812 814 812 810 810 812 813 815 816 813 813 816 816 817 816 818 819 816 817 819 821 822 820 821 824 824 824 826 827 829 831 831 833 833 834
822 822 821 820 820 819 818 817 817 816 816 815 814 814 814 814 813 813 813 812 812 811 810 809 808 808 809 810 810 816 822 820 818 815 813 811 809 808 807 805 803 801 800 800 800 799 801 804 807 807 807 812 814 813 816 813 812 814 814 814 815 815 814 815 815 815 815 816 818 816 814 819 824 823 817 817 822 823 825 825 826 828 828 830 831 832 832 833
822 822 821 820 819 819 818 817 817 816 816 815 814 814 814 814 814 813 813 813 812 812 812 811 810 809 809 810 811 820 823 819 818 816 813 811 810 809 807 806 805 803 802 802 801 801 804 805 806 807 807 812 815 817 819 816 817 819 816 815 814 814 814 813 812 814 814 814 815 812 813 819 825 823 812 815 823 822 825 826 827 828 828 830 830 831 832 832
822 822 821 820 819 819 818 818 817 816 815 814 814 814 814 814 814 814 813 813 813 813 813 813 812 811 810 811 816 823 822 819 818 815 813 812 810 809 808 807 806 805 804 804 804 804 805 805 806 807 808 812 814 818 819 817 818 818 815 813 814 813 811 811 811 813 814 812 813 814 815 822 827 821 808 812 822 822 824 826 827 828 827 830 830 831 832 832
822 821 821 820 820 819 819 818 817 816 815 814 815 815 814 815 814 814 813 813 814 813 813 813 812 812 811 812 819 823 821 819 818 815 813 811 810 810 809 808 807 807 806 806 806 805 805 805 805 806 810 813 815 817 816 818 819 816 816 814 812 812 809 809 809 813 814 810 813 816 816 819 822 813 805 813 820 822 825 825 827 827 828 830 830 832 832 832
822 821 821 821 820 820 819 819 817 816 816 815 815 815 815 815 814 814 814 814 814 814 814 813 812 812 812 817 822 822 820 820 817 815 813 811 811 810 810 809 808 807 806 806 807 806 804 804 804 807 811 812 814 817 815 818 819 816 819 818 815 815 811 810 813 814 813 811 813 815 811 808 809 806 808 816 819 822 825 825 826 827 828 830 830 831 831 832
822 821 821 821 821 820 820 819 817 817 817 816 816 816 816 815 815 815 814 814 814 814 814 814 814 812 815 821 823 820 820 819 816 814 812 812 811 810 810 809 808 807 806 806 806 806 805 804 803 806 812 814 816 817 817 819 820 820 820 823 831 825 810 808 816 815 810 813 814 814 811 803 800 801 808 815 816 819 822 822 825 825 827 829 830 831 831 833
822 822 822 821 821 821 820 819 818 818 818 818 817 816 816 816 816 816 815 815 815 815 815 815 814 814 818 822 821 820 819 817 815 814 813 812 811 810 809 808 807 807 806 806 806 806 806 804 805 810 815 817 818 816 818 820 824 829 822 819 836 833 816 811 815 815 810 813 816 814 812 804 799 800 806 813 815 816 818 820 822 823 826 828 829 830 830 832
822 822 822 822 822 821 821 820 819 819 819 819 818 817 816 816 816 816 816 816 815 815 814 815 815 814 820 824 820 819 819 817 817 816 815 814 812 811 809 807 807 806 806 807 806 806 805 806 813 821 819 819 823 820 821 823 823 833 830 820 827 830 826 819 811 815 815 813 814 813 810 803 797 801 809 813 812 814 816 818 820 821 824 827 828 829 830 832
823 823 823 822 822 822 821 821 820 820 820 820 819 818 817 816 816 816 816 816 816 816 815 816 815 814 820 823 822 822 821 821 819 818 816 814 813 811 809 807 807 807 807 806 806 807 808 813 821 824 824 829 834 826 822 826 822 827 834 829 830 833 833 825 812 815 818 814 812 812 812 805 796 799 808 811 811 813 814 814 817 820 823 826 827 829 830 832
823 823 823 823 822 822 821 821 821 820 820 821 820 820 818 817 817 816 817 816 815 815 815 817 815 819 826 825 826 828 824 823 821 819 817 814 814 812 810 809 809 808 808 808 809 812 814 819 823 821 825 832 835 829 824 830 830 829 834 832 835 838 836 831 821 816 816 814 812 814 813 805 797 798 803 808 811 811 810 811 814 819 822 825 827 828 830 832
824 824 823 823 823 822 822 821 820 820 820 820 820 820 819 818 817 817 818 817 819 823 826 828 826 830 835 831 831 830 826 825 823 820 817 815 814 813 813 812 813 811 813 815 814 821 824 821 822 822 828 834 838 839 834 835 839 836 840 842 840 839 834 829 823 819 820 817 814 814 810 802 798 796 796 802 808 809 808 810 815 819 822 824 826 827 830 833
824 824 824 824 823 823 822 821 820 819 819 819 819 819 820 821 822 825 826 824 830 835 836 837 835 836 836 833 833 829 826 825 824 822 818 817 815 814 815 814 815 815 822 827 823 829 832 823 826 831 834 838 840 845 843 843 847 843 845 846 843 843 837 826 819 818 822 818 808 807 805 802 799 793 792 797 803 807 807 811 815 818 821 823 825 828 831 833
825 824 824 824 824 823 822 821 821 819 818 819 818 820 822 824 826 830 833 834 838 838 837 838 837 837 836 835 834 831 830 827 824 823 820 819 816 815 819 820 819 821 832 839 832 832 831 826 833 837 837 841 843 847 847 845 847 846 845 843 842 843 832 820 817 816 822 818 804 803 804 800 797 792 792 798 802 802 804 808 812 816 820 823 825 829 831 833
825 825 825 824 824 824 823 822 821 820 819 819 819 821 824 825 826 828 830 836 839 838 837 838 837 837 836 836 835 833 833 831 826 824 823 822 819 820 826 827 827 829 837 839 831 830 830 829 835 839 842 845 846 849 847 843 843 843 844 842 837 834 826 817 813 814 821 817 800 802 808 799 795 797 799 802 801 799 801 805 811 814 819 823 826 830 831 833
825 825 825 825 825 824 824 823 822 821 821 820 821 823 825 826 827 827 827 833 839 839 839 838 838 839 837 835 835 834 835 836 835 831 828 826 826 830 832 832 834 834 838 836 830 831 831 832 838 843 845 842 840 844 843 839 838 839 841 839 832 829 829 816 807 811 819 818 807 808 811 801 796 798 801 806 804 802 804 807 812 815 817 822 827 830 832 833
825 826 825 825 825 824 824 824 823 822 822 823 823 824 827 827 827 828 829 837 841 839 840 840 840 840 839 838 837 836 837 841 842 836 833 832 832 835 835 838 838 834 839 843 839 834 830 835 844 845 842 839 836 837 838 835 834 837 838 837 830 826 828 821 816 819 817 818 820 816 805 790 790 794 798 806 807 807 810 811 816 819 820 825 828 831 832 833
826 825 825 826 825 825 824 824 824 824 825 825 825 826 828 827 828 827 829 840 843 840 840 840 841 840 840 839 838 838 839 840 841 839 836 836 835 835 837 842 839 833 840 846 842 835 831 840 845 838 836 839 835 831 837 838 837 840 833 829 828 824 828 828 829 830 817 812 818 819 810 793 785 790 798 807 809 811 815 815 819 823 824 827 829 831 832 832
826 826 826 826 825 825 824 825 825 826 826 827 827 828 828 828 829 827 831 842 848 846 843 840 842 842 839 841 840 840 841 839 840 840 838 837 837 836 837 842 841 837 841 844 842 837 836 842 844 837 835 836 833 833 841 843 842 841 832 829 833 832 834 831 831 835 821 809 812 819 822 809 788 785 799 810 812 814 818 820 823 825 827 828 830 832 832 832
826 826 826 826 826 825 825 826 826 826 827 828 828 828 828 829 828 827 834 848 853 852 849 843 843 843 841 844 843 840 844 844 839 840 840 838 838 837 836 841 842 842 847 846 838 836 839 838 838 838 837 835 833 834 839 845 843 836 832 836 835 831 833 830 832 836 826 818 818 817 821 818 799 794 808 815 813 816 820 824 827 827 829 830 831 832 832 832
827 827 827 826 826 825 826 826 826 826 827 828 828 828 829 829 828 829 838 855 861 854 852 849 844 844 845 846 845 844 849 849 843 841 842 840 839 838 838 843 843 843 850 847 836 837 840 835 835 838 837 836 834 833 838 845 841 831 834 841 837 832 832 830 831 833 833 831 821 813 819 818 800 797 814 818 814 819 822 825 829 829 830 831 832 832 832 833
828 827 827 827 827 826 826 826 826 827 827 828 828 828 829 828 829 833 842 859 862 854 854 851 844 848 852 848 848 852 851 851 851 847 843 843 842 840 843 847 847 846 850 850 840 838 840 840 842 841 837 836 833 834 840 842 836 832 836 837 833 832 830 831 834 831 833 833 818 807 814 815 796 788 804 812 812 816 821 825 828 828 831 832 832 833 832 833
828 827 827 827 826 826 827 826 827 827 828 828 828 829 829 829 833 841 851 861 861 857 857 853 852 860 861 850 848 855 854 854 858 853 847 849 845 844 848 849 849 846 845 847 841 837 841 847 848 842 839 840 838 838 840 841 840 835 835 832 824 824 827 834 840 834 825 817 810 807 809 815 806 788 795 810 812 814 819 825 828 828 831 832 832 833 833 834
828 827 827 826 826 826 826 826 827 828 828 829 829 829 829 834 842 850 860 864 861 861 860 859 864 867 866 862 857 858 858 857 859 856 852 855 853 851 851 850 852 846 839 843 843 839 840 843 844 842 843 845 840 837 837 845 848 838 835 835 825 819 822 825 830 832 824 808 805 811 812 819 815 798 807 825 824 820 821 824 828 829 831 832 832 833 834 835
828 828 827 826 826 826 826 827 828 828 829 829 829 830 832 840 852 861 868 864 861 866 867 868 872 870 870 871 866 866 865 859 859 861 862 864 865 868 867 867 866 854 845 849 849 843 837 836 842 842 843 845 840 836 835 838 840 838 840 840 834 833 832 826 822 824 822 809 804 811 817 819 810 804 821 832 826 824 823 824 828 829 831 832 834 835 835 835
829 829 827 827 826 826 827 828 828 828 829 829 829 832 836 844 860 875 876 865 866 874 876 876 876 876 875 867 865 872 870 862 861 864 868 868 867 873 878 880 876 864 858 859 855 851 841 835 840 838 839 845 842 839 839 836 836 842 845 843 843 849 851 844 836 831 823 808 800 810 822 817 802 807 827 831 826 827 826 827 830 831 833 834 835 836 835 833
830 829 829 828 828 828 828 828 829 829 829 829 830 834 840 852 870 881 875 871 877 880 880 882 877 873 872 867 870 876 867 863 867 865 864 863 863 867 872 876 877 873 868 864 865 867 854 840 837 835 839 845 842 843 846 843 842 846 849 847 846 848 853 852 842 835 830 816 808 816 822 811 801 814 830 829 827 829 828 831 834 834 836 836 835 835 833 831
831 830 830 829 829 829 829 829 829 829 829 830 834 840 849 862 876 877 873 877 883 880 881 885 877 865 865 868 876 880 870 865 869 867 863 865 868 871 872 876 880 879 872 867 872 876 864 849 841 841 846 846 843 846 850 844 841 849 852 847 844 844 846 847 840 837 840 836 826 819 814 810 814 827 833 829 829 830 830 834 835 837 837 835 834 834 832 830
831 831 830 829 830 829 829 829 829 829 830 829 835 850 863 872 876 876 879 882 885 884 880 877 873 866 865 868 870 873 874 871 869 866 864 870 876 877 878 881 885 884 877 874 877 876 865 849 840 843 846 846 847 848 849 846 841 847 849 840 843 848 846 845 841 837 845 844 827 811 808 813 821 829 830 829 829 829 832 836 836 837 836 834 834 833 831 830
831 831 831 831 831 829 829 830 828 829 831 830 840 862 878 880 881 884 888 888 889 892 880 869 873 875 872 873 867 867 872 871 870 867 865 871 875 875 879 883 886 887 884 881 879 879 875 856 843 847 844 842 853 851 847 852 849 845 846 841 843 847 847 854 854 844 847 844 823 808 810 813 813 820 826 829 830 832 833 836 838 837 836 836 834 832 830 827
832 831 831 831 831 830 830 828 829 830 830 839 858 876 883 884 887 891 892 892 892 889 877 870 876 879 879 877 870 872 875 868 867 870 869 870 871 875 881 882 885 889 889 887 880 881 886 867 848 853 851 844 851 849 843 851 854 850 848 846 850 851 848 856 860 853 853 849 828 813 812 812 808 812 824 831 833 835 835 836 837 836 835 834 831 828 826 823
832 831 832 834 831 831 831 829 831 830 829 847 869 879 882 885 890 894 893 893 891 884 876 877 882 881 881 880 874 878 882 875 872 875 872 872 872 876 883 884 884 888 890 890 884 882 887 876 855 853 855 848 845 844 841 846 852 853 850 849 853 853 848 852 855 853 854 850 838 823 814 813 815 816 826 835 836 837 837 837 837 835 833 831 828 825 822 819
832 832 834 835 831 832 832 829 832 836 842 862 877 880 884 887 889 894 895 893 890 883 878 881 884 880 879 882 882 883 885 882 881 878 875 878 876 875 886 890 885 887 891 891 888 885 885 883 866 851 853 853 845 844 847 848 851 853 851 850 851 849 848 854 854 851 854 851 845 840 824 813 819 825 830 836 837 839 840 839 838 835 832 829 826 823 820 818
832 833 835 835 833 833 831 832 847 860 865 876 882 882 886 886 886 892 896 894 891 888 886 885 885 882 879 881 884 887 887 883 884 881 877 880 877 873 887 896 890 889 890 885 886 888 885 886 879 866 862 855 844 845 850 852 853 854 853 851 852 854 855 860 857 850 853 852 848 852 838 816 818 828 832 836 838 839 840 839 837 834 830 827 824 821 819 816
833 837 838 835 833 833 831 844 870 879 874 878 882 884 886 886 886 889 892 894 891 889 889 887 887 887 885 883 884 889 888 881 881 880 878 880 879 878 889 900 898 895 890 884 887 891 889 891 890 880 869 856 847 851 858 858 856 855 857 857 858 861 860 865 864 854 856 856 849 850 841 821 822 830 831 835 838 838 839 838 835 831 828 824 821 819 817 813
836 838 838 836 835 833 835 852 874 880 879 885 888 888 889 888 887 888 889 890 888 887 886 885 886 886 885 887 887 887 885 880 878 878 879 881 883 887 896 901 898 896 892 886 887 891 890 892 889 874 860 850 847 854 861 861 857 854 856 859 860 861 860 864 866 862 865 862 852 850 839 821 824 832 830 832 836 837 836 835 832 828 824 821 819 816 814 811
839 839 838 836 833 831 837 851 866 876 883 886 885 886 889 889 888 886 886 886 887 887 882 882 886 886 886 891 889 886 884 880 877 881 883 881 884 895 902 901 898 895 893 890 891 891 886 885 886 878 866 855 848 851 855 855 856 854 854 857 860 861 864 866 866 869 868 854 847 854 841 818 820 826 825 829 835 836 834 832 830 826 822 820 818 815 812 809
839 839 840 839 834 836 848 860 864 871 880 881 880 885 886 886 889 888 887 888 891 891 884 883 889 889 890 892 889 888 889 882 878 883 886 883 885 896 902 901 900 898 898 900 900 896 889 887 889 887 884 879 871 865 858 853 856 857 854 857 860 863 868 867 866 871 866 849 849 857 843 822 820 822 825 834 838 835 832 830 827 825 822 819 817 814 811 808
837 840 842 842 842 847 861 873 869 867 875 875 876 885 885 880 886 892 890 888 891 893 889 888 891 890 888 889 885 883 886 886 885 884 884 882 882 893 903 902 902 902 902 904 902 897 894 893 890 885 884 883 877 868 861 860 865 864 858 858 859 863 871 872 872 873 865 857 854 849 841 832 825 827 835 840 839 834 831 828 825 823 821 818 816 813 810 808
839 846 851 849 849 854 862 872 871 868 873 873 872 882 884 880 883 888 888 888 891 893 890 889 890 886 884 887 885 883 885 889 889 885 886 888 887 893 903 903 903 904 903 903 902 898 894 890 888 887 883 876 873 870 867 870 874 868 863 862 861 863 870 874 875 869 864 868 859 842 842 841 832 834 843 842 837 835 831 827 825 822 820 817 814 811 809 808
843 853 862 857 854 860 862 867 874 873 874 877 881 884 882 880 881 881 883 888 891 890 886 884 886 887 887 890 886 882 883 884 884 885 888 892 893 892 894 898 902 903 902 901 901 899 895 890 890 891 884 878 878 876 872 874 874 868 866 867 866 867 868 870 872 867 867 873 862 844 844 845 838 841 846 842 839 836 831 828 825 821 818 815 812 811 809 807
850 855 864 863 862 871 875 877 878 873 872 878 881 882 880 876 877 882 887 886 884 888 886 879 881 887 891 893 889 884 884 882 882 887 890 893 896 893 889 891 897 902 902 898 900 903 897 889 894 898 890 881 880 875 872 872 870 867 868 870 871 871 870 871 871 868 867 867 858 849 847 845 844 847 847 842 839 836 831 827 823 820 817 814 812 811 809 807
845 847 856 861 866 877 881 881 876 868 871 879 875 878 884 878 875 884 890 885 877 882 887 881 881 888 892 894 891 885 886 886 884 889 895 896 897 896 893 892 895 899 898 896 901 904 895 890 898 902 893 881 873 868 868 869 870 871 873 874 876 875 874 874 872 869 867 862 854 852 854 852 850 849 846 842 838 834 830 826 822 819 816 814 813 812 810 807
841 843 847 850 863 878 878 879 879 868 868 875 873 877 883 879 878 882 885 888 885 882 885 884 883 889 894 895 892 886 888 892 890 891 896 896 895 895 895 896 899 899 895 897 902 901 897 898 900 901 896 882 867 863 867 866 866 872 879 880 880 879 877 876 874 870 867 860 855 859 865 860 852 847 844 840 838 834 830 827 823 819 817 816 816 814 811 807
842 844 845 845 861 880 879 877 879 870 868 877 880 881 882 881 887 886 879 886 893 889 889 890 888 889 889 887 887 889 892 895 895 895 898 898 898 899 898 899 901 899 896 899 904 906 906 902 900 904 898 877 863 868 873 866 859 868 883 886 881 879 877 875 874 869 863 863 867 871 869 858 850 847 845 840 838 835 832 828 825 820 819 819 818 815 811 807
Wind_Speed
3 3 1 1 1 2 3 5 7 8 8 6 4 2 1 1 3 5 7 8 9 10 9 7 2 6 6 6 4 2 3 12 21 25 20 15 21 21 20 17 14 14 11 9 7 5 3 5 7 8 4 2 3 2 2 3 3 4 3 2 1 3 4 5 6 6 4 2 4 5 3 7 3 3 3 4 7 4 5 5 4 5 5 5 7 10 11 12
4 3 1 0 1 2 3 6 7 8 6 5 4 2 2 2 3 6 6 8 9 10 9 8 2 7 7 7 6 4 3 7 17 20 19 21 22 19 18 16 14 11 9 8 7 6 4 4 7 7 5 2 2 3 2 2 3 4 3 2 3 5 4 4 6 5 3 3 4 3 4 6 5 6 5 2 1 2 6 3 3 4 4 6 8 11 12 14
4 2 1 0 1 3 4 6 7 6 5 4 3 2 2 3 4 6 6 7 9 10 9 8 5 4 5 7 6 5 6 5 11 13 20 24 20 18 18 16 15 12 10 8 6 5 2 1 3 5 4 2 2 3 3 3 2 2 3 1 5 6 4 3 5 5 5 4 6 4 4 3 3 6 4 4 5 3 4 4 2 4 5 5 6 9 12 14
3 2 0 1 2 4 5 6 6 4 4 3 3 2 3 3 4 5 6 7 9 9 8 7 7 6 3 3 5 4 2 4 6 11 22 24 19 19 17 16 18 14 10 8 6 4 2 2 4 5 4 2 4 3 3 3 1 2 3 3 6 3 2 4 6 6 5 4 6 5 4 2 3 3 3 6 6 4 6 8 7 9 10 8 6 8 11 13
2 1 1 2 3 5 5 5 5 4 4 3 2 2 2 3 4 4 6 7 8 8 7 6 5 7 8 7 4 6 2 5 6 16 24 22 19 18 15 17 18 14 10 7 4 4 4 5 6 6 4 2 4 4 1 3 2 2 0 4 6 4 1 5 4 4 3 3 5 5 4 4 3 2 4 9 7 6 6 8 9 10 11 9 8 8 9 11
2 0 1 2 4 5 5 5 4 4 3 2 2 1 2 3 4 4 5 7 8 9 7 4 1 3 8 13 7 5 5 3 9 19 23 20 18 17 15 16 15 12 7 3 3 5 5 6 6 4 3 2 2 1 1 4 3 0 3 2 4 3 2 3 2 3 4 7 5 5 4 4 4 1 4 8 7 6 4 7 10 10 12 12 11 9 8 8
1 1 2 3 4 5 5 5 4 4 3 2 1 1 2 3 4 4 5 7 9 10 9 3 3 5 1 9 12 10 8 1 13 20 21 19 15 16 15 13 12 8 4 5 5 4 4 7 5 3 4 3 2 1 2 5 4 3 2 2 2 4 4 3 3 3 6 6 6 5 4 5 6 3 3 6 6 3 3 9 13 12 14 13 10 8 8 9
1 1 2 3 4 5 5 4 4 4 3 2 2 2 2 3 3 4 5 7 8 12 13 5 3 6 5 3 5 9 5 5 17 22 20 17 13 15 16 15 14 13 13 14 8 3 4 6 3 3 3 1 2 1 3 4 4 4 1 2 0 1 4 3 3 3 4 4 3 6 4 5 6 4 3 6 5 4 6 9 11 11 11 10 8 8 8 9
2 2 2 4 5 5 5 4 4 4 4 4 3 3 2 3 3 4 5 5 6 10 14 13 4 3 4 2 5 6 4 8 17 23 20 15 13 13 16 18 18 17 17 17 15 9 4 2 1 2 3 2 2 1 3 3 2 1 1 1 1 2 5 2 1 2 4 3 4 6 5 4 3 3 3 6 7 6 7 8 8 9 8 8 7 7 8 8
2 2 3 4 5 5 5 4 5 6 6 5 3 3 2 2 3 4 4 4 4 5 9 14 11 3 4 3 7 5 7 11 17 22 18 14 12 11 16 19 17 17 16 16 19 13 4 1 2 3 4 3 3 2 3 2 1 1 1 1 0 3 5 1 3 4 3 3 6 7 5 3 1 1 3 6 8 7 8 8 7 9 9 8 7 7 9 10
1 3 4 5 5 5 4 5 7 8 7 5 3 2 2 3 3 3 3 2 3 4 6 8 9 13 16 12 8 5 9 13 18 21 16 11 10 10 15 18 15 16 15 15 16 11 5 2 3 4 2 1 2 3 2 1 2 1 1 1 3 6 5 2 3 4 2 3 6 6 2 2 2 2 6 8 9 8 10 10 8 9 8 7 7 6 8 11
2 3 4 5 5 4 5 6 8 7 5 4 3 3 4 3 3 2 2 2 2 3 5 7 5 5 17 16 6 4 9 13 18 19 14 10 9 8 13 15 13 14 13 12 12 11 8 1 6 6 0 2 1 2 0 1 1 1 3 1 6 9 5 4 2 2 3 3 6 6 1 2 4 8 6 8 10 8 9 10 8 8 7 6 7 6 6 9
3 4 5 5 4 4 5 6 6 7 7 7 5 4 4 3 4 4 2 1 1 2 4 8 7 3 8 7 2 7 11 14 18 16 14 12 9 7 11 13 10 12 11 10 9 11 9 5 10 7 2 5 1 1 2 4 3 2 3 2 4 9 5 4 3 2 0 3 7 5 4 5 9 12 5 7 11 10 9 10 9 8 7 6 6 5 5 8
4 5 5 4 4 5 6 7 9 12 12 10 7 4 3 4 6 7 6 3 0 3 3 6 9 9 8 2 0 11 14 14 19 18 16 15 11 7 9 9 7 10 9 9 9 10 8 8 13 7 2 5 1 1 4 6 4 1 2 2 3 4 5 6 3 2 1 2 5 4 4 6 8 11 6 9 12 14 12 11 10 8 7 6 6 6 5 7
4 4 4 3 4 6 7 9 13 15 15 14 12 8 2 3 4 6 8 7 4 3 3 5 6 7 7 2 1 11 15 16 21 21 17 15 13 9 10 8 5 7 7 8 7 8 9 9 11 5 2 3 4 3 4 4 4 4 2 3 3 0 5 10 5 3 2 3 1 3 4 8 8 8 5 10 13 14 13 11 11 9 8 7 5 6 6 6
4 4 4 4 6 7 6 7 9 11 12 14 16 14 5 1 1 4 6 8 9 6 4 6 5 6 6 1 5 10 12 14 19 21 15 11 11 10 10 6 4 4 6 9 6 5 11 11 6 3 2 5 6 4 4 4 5 4 2 3 4 2 4 8 6 1 1 2 1 3 4 7 7 5 2 9 13 13 11 11 12 10 9 7 6 6 6 5
4 3 4 6 7 6 4 3 2 3 6 8 13 19 17 7 0 1 2 3 6 7 7 7 5 6 5 3 5 7 9 12 16 20 18 12 9 12 10 4 5 4 3 7 10 7 10 9 2 1 4 5 3 3 3 4 5 4 3 1 4 4 3 5 7 5 3 1 3 4 5 10 11 6 3 9 12 12 12 12 12 10 8 7 6 6 6 5
4 3 6 7 7 6 5 4 4 4 3 4 7 12 20 20 13 9 7 3 1 4 7 9 7 5 4 7 4 8 14 15 16 21 22 16 9 12 13 6 5 7 3 6 10 8 6 5 2 2 5 5 5 6 2 3 3 3 4 3 4 4 3 5 7 4 4 3 4 4 6 13 15 10 5 8 11 12 13 12 10 9 8 7 6 6 6 5
3 5 7 8 7 7 6 6 6 5 4 1 1 2 5 12 16 20 23 16 6 4 2 5 6 4 2 6 7 14 16 12 14 20 25 22 12 9 12 9 6 6 5 4 6 6 4 4 5 4 3 4 2 4 4 4 5 5 5 4 5 6 5 8 9 6 1 3 7 7 10 12 13 13 9 7 10 12 12 8 7 8 8 7 6 6 5 6
3 5 7 8 8 8 9 9 9 5 3 4 3 1 1 2 6 10 16 16 7 4 3 2 2 2 2 4 10 18 12 5 9 20 29 26 13 8 10 9 7 7 6 1 4 4 4 5 3 1 4 5 4 5 4 2 3 3 4 4 6 7 7 8 9 6 1 2 7 7 9 12 12 15 12 6 9 12 11 8 7 8 7 7 8 6 6 7
4 6 6 7 7 9 10 8 10 10 5 2 4 2 1 2 5 1 3 6 3 3 5 0 0 0 3 4 10 15 6 2 8 19 32 25 9 5 6 7 8 6 4 2 4 3 5 5 1 5 7 6 3 3 3 2 2 1 3 4 5 5 8 9 8 6 0 1 6 4 7 14 13 14 11 3 8 11 11 10 9 10 8 7 8 7 7 6
4 4 4 6 7 8 10 9 8 9 8 6 8 8 4 4 8 7 4 4 2 5 5 3 3 3 4 2 9 11 4 4 9 16 29 24 10 5 4 6 7 2 5 3 3 5 5 1 6 7 4 3 2 3 3 0 1 1 2 2 5 4 6 9 7 4 1 0 8 7 9 14 13 11 7 3 5 6 7 9 9 11 10 8 7 7 6 5
2 2 3 5 6 7 8 9 8 6 8 10 12 10 7 7 9 6 5 5 1 4 4 5 4 5 6 4 12 12 6 6 5 10 22 18 7 4 3 5 5 2 6 6 3 3 3 3 6 3 2 3 1 3 4 3 1 2 2 3 6 5 3 6 5 2 1 3 9 11 10 10 9 5 4 5 2 2 5 8 7 7 10 9 8 7 6 5
1 1 3 5 7 7 5 7 8 8 10 12 14 11 9 8 7 5 4 4 2 2 1 1 2 2 3 4 12 9 3 2 1 7 16 12 4 2 4 3 3 4 3 2 5 3 3 5 3 3 4 2 2 4 4 3 4 3 4 5 7 7 4 7 8 7 6 4 4 7 9 7 4 3 3 5 4 5 6 8 8 6 7 8 7 6 5 4
1 1 3 4 7 7 3 4 8 8 9 10 11 9 9 6 3 4 4 3 3 3 3 1 1 4 3 5 12 5 2 1 0 4 10 9 4 2 3 1 3 4 3 1 2 2 4 4 1 2 5 4 2 4 1 1 4 5 5 7 8 8 7 9 10 10 9 5 0 4 6 6 3 2 2 2 5 5 5 8 9 7 7 7 7 5 4 3
2 2 3 4 6 7 3 2 5 5 5 5 6 6 6 3 2 2 3 5 3 4 5 3 1 6 7 6 10 3 3 4 2 4 9 9 4 2 2 2 2 3 3 2 1 2 2 3 3 2 3 6 5 3 2 2 4 5 5 5 5 6 7 10 10 6 5 7 2 4 1 6 5 3 2 0 4 5 5 6 7 6 6 6 5 5 3 3
2 2 4 4 5 7 3 1 2 3 2 2 3 4 3 2 3 2 3 5 4 3 4 4 2 7 7 7 8 3 3 7 4 5 9 11 7 1 3 4 2 3 2 2 3 1 2 4 5 4 5 5 4 3 3 4 3 5 5 2 4 8 9 11 9 4 5 6 4 2 3 5 5 4 3 2 6 5 4 6 6 5 6 6 5 4 4 4
3 4 4 5 6 6 4 2 1 2 3 3 3 3 3 3 3 2 5 4 3 2 1 4 3 6 7 8 9 6 1 6 3 4 10 14 10 2 3 4 0 3 3 4 2 5 2 2 3 2 4 3 3 2 3 5 1 7 5 2 6 9 11 10 7 6 4 4 6 3 2 3 6 3 2 2 5 3 3 5 5 5 6 5 4 3 4 4
4 5 5 5 5 4 4 3 2 3 4 4 3 3 4 3 2 3 6 3 2 1 1 2 4 6 8 7 7 5 3 4 3 7 11 12 11 6 3 1 2 1 2 4 1 6 2 2 3 2 0 4 5 4 4 6 5 7 5 6 7 7 8 6 4 5 3 1 6 7 2 2 7 3 1 2 2 3 4 5 4 5 5 4 4 3 4 4
4 4 5 5 4 2 2 3 4 5 4 4 3 4 4 3 4 5 4 0 1 2 1 2 3 4 8 7 6 5 4 3 2 6 7 4 8 9 3 1 3 4 2 4 2 6 4 2 3 2 2 4 3 4 4 6 6 5 6 6 7 6 3 1 1 2 2 2 6 7 2 2 5 4 2 0 2 4 6 5 4 4 4 3 3 4 4 4
6 5 5 4 2 2 1 2 5 5 4 4 4 4 3 2 5 7 2 1 1 3 3 4 3 4 8 6 4 6 5 5 5 6 6 4 7 9 5 3 4 4 4 6 4 7 7 3 1 2 2 2 3 4 2 1 1 4 5 5 7 7 3 4 4 4 2 6 5 5 2 2 4 4 2 2 3 5 7 6 5 4 4 3 3 4 4 4
9 8 6 4 1 1 1 4 5 5 4 4 4 4 4 2 4 3 1 3 2 2 2 2 3 5 6 3 3 6 4 5 5 5 3 3 4 5 5 3 2 5 6 6 5 6 5 2 2 4 2 2 3 5 5 4 4 5 4 5 6 6 5 5 6 3 3 8 4 3 1 1 6 3 4 5 5 7 6 5 5 4 3 3 4 4 4 3
12 11 10 9 6 5 5 5 5 4 4 4 3 5 6 5 2 1 3 3 2 2 1 1 3 3 3 4 4 5 3 3 5 4 1 1 4 3 3 2 2 3 3 5 6 6 6 5 4 4 2 1 3 3 6 4 4 6 3 3 3 3 4 6 6 4 6 10 5 4 1 4 5 3 4 6 5 5 5 5 5 4 4 3 3 3 3 3
13 13 13 13 11 9 7 4 3 3 3 3 4 5 7 4 1 2 3 3 1 3 2 0 4 4 2 3 3 4 2 2 5 5 3 3 5 3 4 5 5 3 0 2 4 3 4 5 3 2 2 2 3 1 3 3 4 4 2 3 1 1 2 5 4 5 9 13 9 1 1 4 4 3 2 6 5 4 5 5 5 6 4 3 2 2 4 4
11 13 14 15 14 10 6 3 2 2 3 4 7 6 6 2 3 1 2 4 1 3 3 1 3 4 3 3 3 2 1 2 4 5 4 4 3 1 2 4 4 3 2 2 3 1 1 5 5 3 1 1 3 2 1 2 4 3 2 2 2 3 3 3 6 6 7 10 9 2 2 4 1 2 1 4 3 4 6 5 5 5 2 2 2 3 5 6
6 10 14 16 16 12 7 2 2 2 3 6 8 5 2 3 2 2 2 1 1 1 3 3 4 5 4 5 4 4 2 2 3 4 3 2 1 1 1 1 2 2 3 1 2 1 2 6 7 6 4 0 1 3 0 2 2 2 2 3 4 4 5 2 7 4 3 7 7 3 4 3 1 1 3 3 3 4 5 5 5 3 2 4 4 4 6 7
1 4 8 15 18 14 8 2 3 4 4 7 7 3 2 2 1 2 1 1 0 1 3 2 2 3 3 3 4 6 4 2 2 3 3 1 0 0 1 1 0 1 1 1 2 1 1 7 7 4 4 4 2 2 2 1 1 0 2 5 4 1 4 2 3 5 5 8 7 5 8 7 3 3 3 2 3 4 3 3 3 3 2 5 6 6 7 8
2 1 4 14 19 13 6 4 4 5 6 8 6 3 2 0 1 1 1 1 1 1 5 2 0 1 1 1 4 6 4 4 4 4 2 2 1 2 2 2 0 1 1 0 1 1 1 5 7 1 3 7 2 2 3 3 1 2 3 3 2 2 4 2 2 5 7 9 8 10 12 7 4 4 2 1 6 6 6 6 5 6 6 7 8 8 9 10
1 1 2 13 18 9 4 3 4 6 8 6 3 2 1 0 0 1 2 2 1 2 3 1 1 1 1 2 2 4 3 2 3 3 2 2 3 1 3 1 1 1 2 1 2 2 1 1 6 3 2 6 5 4 4 6 4 2 3 3 2 2 4 3 2 2 4 8 9 12 12 4 2 3 3 3 5 6 8 9 8 10 10 9 9 10 11 12
1 2 2 14 14 5 5 7 7 8 7 4 3 2 1 0 1 2 2 1 1 1 1 2 1 1 2 1 1 2 2 0 1 2 1 1 3 2 3 1 1 3 2 1 1 1 1 1 4 6 4 4 4 2 2 4 4 3 3 4 4 2 2 3 2 1 1 7 8 10 11 4 1 0 4 3 2 2 5 7 6 9 10 10 11 12 12 12
3 3 3 15 10 2 4 11 9 5 4 3 2 2 1 1 1 2 2 1 0 1 1 3 3 0 1 1 2 1 1 1 0 0 1 1 1 2 2 1 1 3 2 2 2 1 1 1 3 7 6 5 6 4 1 2 2 1 2 2 3 3 3 5 6 1 1 3 5 9 13 7 0 3 5 3 1 1 3 6 7 9 10 12 13 12 13 12
5 3 5 13 7 4 7 8 4 3 4 3 1 2 1 1 2 1 1 2 1 1 1 2 2 1 2 1 1 1 1 2 1 0 1 1 1 1 2 1 2 0 1 2 2 1 1 1 2 6 6 8 11 4 2 1 3 3 2 2 1 1 1 3 8 6 3 3 5 8 11 7 1 4 5 5 4 2 2 5 9 11 13 14 14 14 14 13
4 3 4 10 2 3 10 6 3 5 4 0 0 1 2 1 2 0 0 1 0 0 2 1 1 0 1 1 0 1 1 2 2 1 1 2 2 1 1 1 1 1 1 1 2 1 0 2 2 6 6 7 8 2 3 1 2 2 3 2 0 2 2 4 6 6 4 4 4 7 10 7 1 5 4 3 3 4 7 10 14 15 14 14 15 16 15 14
2 3 4 11 4 2 5 4 2 2 1 0 2 2 2 1 2 1 0 1 0 1 1 1 0 1 0 1 1 1 1 1 1 1 0 2 2 0 1 2 1 1 2 1 1 2 2 1 2 6 7 7 7 5 3 3 2 2 4 2 1 3 5 3 3 3 2 4 4 7 11 7 2 3 6 9 12 13 15 16 17 16 14 13 15 15 15 15
3 1 3 12 14 8 4 4 6 5 2 2 4 2 2 1 0 0 1 1 0 2 1 1 1 1 0 1 1 1 1 0 2 2 2 1 3 1 0 1 0 1 1 2 2 1 2 1 1 1 4 7 8 8 8 8 6 4 6 7 5 3 4 5 5 4 5 7 6 6 10 10 11 15 15 14 16 18 20 19 17 15 14 14 15 15 15 15
3 3 2 7 12 10 4 1 5 6 4 4 4 1 1 1 1 1 2 1 0 2 1 1 0 1 2 2 2 3 2 1 1 2 2 2 3 2 0 1 2 1 1 2 2 2 1 1 2 5 5 6 8 10 11 10 9 10 14 15 13 6 1 1 3 4 7 10 9 8 11 17 20 18 13 13 16 18 17 17 16 15 15 16 16 16 16 13
2 2 2 1 4 5 4 4 5 4 3 4 3 0 1 0 2 1 1 1 1 1 0 1 1 1 1 2 2 2 3 2 1 1 1 2 4 3 1 1 2 2 1 1 2 3 3 2 4 5 8 10 11 13 14 11 10 14 16 15 14 12 6 4 4 7 8 8 10 13 17 22 21 14 11 14 17 17 17 17 18 17 16 16 17 17 16 14
2 2 1 1 2 2 3 3 3 5 4 3 3 1 1 1 0 1 1 0 1 0 1 1 3 1 1 0 1 1 4 4 2 2 1 2 3 4 4 1 1 2 1 2 3 3 4 3 4 3 7 11 11 13 14 11 9 11 12 12 12 12 9 6 6 8 6 7 12 18 23 23 16 12 15 18 18 18 19 19 18 17 18 19 20 17 15 15
3 3 0 2 3 3 1 1 3 6 6 4 3 1 2 3 1 1 1 1 2 2 1 1 4 3 2 2 2 0 2 2 3 4 1 1 3 3 3 2 1 2 1 2 3 2 3 3 3 1 7 11 11 13 12 10 9 9 10 10 8 8 8 7 7 8 8 11 16 21 24 19 11 12 18 19 17 17 18 18 19 20 22 22 20 16 15 16
2 4 1 3 4 2 1 2 3 4 4 3 2 1 2 4 3 1 1 2 1 2 2 1 4 4 1 3 4 2 4 5 4 5 3 0 3 1 1 2 2 3 3 2 2 1 1 3 2 2 5 11 11 10 8 8 10 9 8 8 7 8 8 7 6 9 12 15 19 20 18 13 8 12 18 18 17 19 20 20 21 21 22 21 17 16 18 18
4 5 6 6 4 3 2 2 3 4 2 2 2 2 2 3 4 2 1 1 1 1 1 1 4 3 1 2 4 5 6 6 6 7 6 4 3 3 2 2 1 3 5 2 2 3 2 2 3 5 5 9 8 9 13 15 10 5 6 9 10 9 9 8 8 10 14 18 20 16 10 9 11 15 18 19 20 22 22 22 21 21 21 20 18 19 19 18
6 5 4 6 4 2 2 2 3 4 2 1 2 2 1 1 2 1 2 0 0 1 3 3 3 0 2 2 4 5 5 5 6 6 4 4 3 2 1 2 2 1 2 1 1 1 2 1 4 3 4 9 9 11 14 13 8 4 4 8 11 11 11 10 10 14 15 13 12 9 7 12 17 18 20 22 23 22 21 20 20 18 17 18 19 20 20 19
Wind_Direction
153 150 150 86 55 19 9 358 355 357 1 4 17 50 85 56 18 20 16 22 26 30 34 24 95 172 189 191 212 236 45 38 37 38 38 11 357 357 352 345 343 347 352 357 359 5 17 31 19 16 37 61 4 321 356 20 57 54 79 108 196 193 199 183 185 195 175 217 200 206 181 128 174 232 166 56 45 63 53 34 29 37 44 72 109 119 121 128
153 161 174 56 23 15 6 358 356 359 5 14 32 69 88 74 30 22 16 20 22 24 27 20 67 181 200 207 226 234 237 9 27 30 19 3 0 0 355 352 349 352 3 6 5 23 44 1 354 23 44 52 334 336 15 15 58 83 109 113 222 203 206 198 180 187 185 202 176 179 165 152 189 181 159 110 137 119 81 43 16 63 73 86 106 115 118 116
159 174 182 44 28 17 3 359 360 3 16 26 41 70 83 69 29 18 12 9 10 15 26 34 64 159 197 219 231 236 244 339 23 11 0 1 3 3 1 359 358 1 7 5 4 14 48 2 9 42 46 50 334 347 29 9 34 135 116 103 242 214 214 229 184 196 221 183 141 164 167 161 207 160 158 155 169 198 154 172 160 151 158 135 126 117 115 108
165 179 161 50 33 13 2 1 3 9 25 35 42 69 81 57 28 15 8 5 6 14 26 41 63 88 61 284 238 220 235 36 18 339 352 0 3 3 1 357 354 352 355 358 4 11 53 108 66 57 61 31 337 17 50 337 342 114 111 181 232 191 197 232 194 204 224 176 145 156 147 155 206 148 156 148 150 237 221 203 184 171 170 159 155 130 117 108
172 171 85 48 28 7 2 1 4 18 28 39 47 70 72 42 26 13 6 6 6 11 20 34 63 83 40 3 217 196 94 54 333 337 353 358 2 1 358 356 348 342 349 352 0 40 78 87 69 51 58 40 346 22 49 291 64 66 296 203 208 149 199 243 198 203 185 130 124 138 166 169 157 133 169 164 174 232 219 202 183 165 163 159 156 140 121 111
170 123 62 41 17 0 358 1 7 19 23 33 45 62 47 25 20 17 9 13 18 13 3 3 49 120 46 44 94 132 93 95 319 343 354 357 2 2 2 358 351 347 348 7 48 67 70 53 61 50 46 55 359 64 269 306 44 75 277 251 218 174 211 247 170 197 135 119 150 169 187 136 121 217 195 187 212 245 220 164 158 158 158 153 145 138 127 119
147 74 54 26 3 354 354 1 3 6 12 13 17 9 11 10 17 18 13 26 34 20 2 329 235 214 139 67 75 70 87 87 335 350 355 359 3 6 11 8 11 20 40 61 49 78 77 44 66 105 78 70 219 150 336 318 35 89 235 290 239 179 213 220 136 161 136 147 198 165 142 151 169 196 167 212 235 235 181 140 145 154 153 148 140 141 140 128
100 69 35 4 352 352 352 357 355 355 358 347 337 336 351 5 18 20 23 42 46 32 22 7 233 220 212 167 82 57 62 330 349 358 356 357 5 10 16 22 32 48 57 46 34 88 87 46 77 145 89 82 191 139 345 325 19 67 194 263 164 179 263 262 100 127 156 183 192 133 159 213 201 181 166 219 218 169 152 135 143 148 144 145 144 149 144 132
89 53 6 356 349 353 353 356 356 351 343 332 325 324 344 10 30 24 24 48 52 40 35 32 27 218 199 143 89 66 345 336 355 358 356 355 2 13 20 25 30 43 51 42 37 50 64 52 199 178 160 168 104 39 344 353 315 249 187 303 22 325 310 305 118 171 187 181 146 156 212 270 232 210 229 206 184 165 147 141 150 144 146 154 154 159 151 144
78 15 2 354 350 359 3 6 357 342 331 323 320 324 359 33 40 21 17 53 60 43 38 39 44 81 142 76 71 71 335 349 359 356 358 353 1 22 22 20 24 36 44 39 37 40 49 187 198 132 134 128 67 20 351 27 242 229 52 30 146 303 301 224 210 235 219 204 182 188 226 281 298 295 264 207 177 166 148 155 165 152 162 166 162 169 158 155
43 6 360 353 2 14 15 8 343 331 326 327 341 13 50 47 30 3 2 67 90 57 37 34 48 71 78 72 79 62 347 356 359 359 4 356 5 21 14 13 19 28 35 38 33 25 14 228 158 103 100 110 58 12 345 197 190 275 47 250 305 331 310 263 229 225 212 228 188 166 216 303 5 277 230 195 172 169 159 164 176 166 170 171 168 172 165 161
23 8 3 8 23 27 11 353 336 339 354 19 47 63 55 34 23 25 34 101 122 58 25 15 15 77 67 62 74 26 356 1 358 4 18 9 11 16 12 13 15 25 34 38 28 24 28 117 120 88 285 146 107 357 29 141 114 295 58 282 301 354 340 291 307 204 171 220 168 129 322 258 213 239 225 169 165 166 165 170 178 177 174 172 170 169 169 162
22 15 19 33 36 22 5 356 7 34 47 51 60 59 44 41 61 69 60 124 160 4 6 29 39 105 68 57 52 16 6 3 2 15 32 25 25 27 17 16 23 34 42 52 47 42 49 103 112 105 145 112 136 262 91 45 33 270 38 62 312 359 330 270 354 357 93 197 161 132 283 247 221 239 223 156 166 160 173 185 181 182 177 175 174 166 168 160
26 28 39 52 35 20 22 41 63 64 60 53 45 34 50 86 79 69 57 61 158 20 31 47 64 88 73 107 215 14 6 8 16 22 25 23 28 23 14 26 45 38 42 66 69 64 73 109 99 92 99 87 141 342 32 8 22 315 348 41 9 359 281 287 330 324 352 201 152 126 267 261 253 256 217 170 171 167 181 190 183 185 180 177 176 164 167 167
36 52 66 57 33 38 53 75 81 76 69 58 48 40 60 114 72 53 55 58 64 59 51 44 71 94 67 95 279 0 3 14 19 16 14 16 22 9 359 22 44 27 49 75 81 76 71 91 83 57 311 20 41 51 21 346 13 28 342 313 343 22 272 307 313 189 216 271 135 128 259 274 273 273 221 173 175 179 185 189 185 187 179 174 174 164 169 175
62 84 77 46 37 51 70 83 82 76 64 52 51 49 47 197 2 44 57 65 70 62 40 28 46 94 88 331 320 351 4 10 5 5 11 15 17 359 348 14 36 36 95 77 73 67 43 54 67 37 349 21 43 60 32 3 348 5 30 283 289 288 297 318 319 252 199 276 279 200 248 280 273 282 206 173 182 185 187 192 188 186 177 170 172 167 166 166
91 94 60 42 36 41 47 51 46 26 32 49 61 60 61 65 243 320 21 79 75 47 50 43 42 92 78 336 335 342 339 344 349 359 8 10 10 3 3 30 17 7 113 49 33 25 21 36 49 356 43 40 50 64 31 348 317 328 15 331 266 268 289 309 305 321 18 22 266 235 240 264 268 275 197 185 189 187 192 197 190 181 173 168 168 164 165 160
106 76 51 44 33 26 12 342 311 314 358 63 83 72 67 67 75 73 58 107 200 354 38 28 28 92 24 348 349 317 315 325 346 0 5 6 0 6 20 36 359 357 18 15 23 25 8 22 52 31 28 15 29 61 71 255 253 276 302 300 296 287 255 269 279 300 1 330 265 268 267 264 272 276 238 204 193 195 203 197 185 173 167 166 161 164 167 142
91 60 54 47 36 29 11 355 346 311 281 309 143 141 63 58 65 61 53 60 65 24 40 345 12 110 307 325 321 322 316 317 352 4 5 4 351 355 21 26 16 27 38 10 5 20 15 22 43 42 2 335 2 105 160 211 203 238 260 239 268 283 265 259 263 262 303 297 262 254 264 266 275 280 267 228 197 204 210 186 168 170 162 161 159 167 152 121
75 63 59 49 40 29 19 17 15 0 264 247 236 226 336 21 43 38 34 47 66 71 96 274 3 96 319 317 328 342 339 316 4 9 5 0 346 351 11 12 25 45 48 353 316 2 63 54 45 194 241 260 255 200 198 214 186 237 262 235 256 269 274 267 265 265 171 275 259 228 253 271 276 281 282 250 196 204 206 173 166 172 160 161 162 157 137 127
82 70 62 47 37 27 24 25 27 37 57 191 196 107 133 135 77 102 359 40 41 38 63 345 305 56 302 303 335 353 4 312 354 6 5 1 355 7 358 10 37 29 6 271 278 350 63 66 312 235 223 229 256 197 194 219 171 225 246 255 278 261 265 265 262 275 201 250 263 230 274 281 279 283 292 263 194 206 201 178 171 166 155 163 157 140 136 134
92 76 58 35 28 25 24 25 28 45 63 97 112 96 121 131 108 134 137 85 11 10 41 16 25 358 308 325 353 0 41 360 347 357 1 2 17 28 352 36 55 358 340 350 333 359 31 41 262 258 210 167 46 71 107 185 193 218 233 278 296 279 283 276 259 267 120 254 286 302 301 285 282 285 306 312 221 213 187 170 162 157 152 154 146 135 137 133
93 71 34 18 20 16 20 31 35 58 77 94 99 96 108 106 116 133 97 96 49 354 20 21 39 0 345 13 0 5 51 33 344 338 355 3 20 42 59 50 41 349 357 19 52 36 5 274 258 266 135 152 11 27 49 16 333 238 248 291 288 294 320 289 280 284 219 246 281 302 302 283 290 306 340 340 295 101 116 134 130 141 146 141 137 133 132 130
86 24 2 6 14 6 10 35 43 65 81 96 99 105 120 110 118 124 80 87 56 1 359 350 130 38 1 350 351 5 84 53 303 323 353 12 10 25 83 80 38 21 349 45 83 84 266 252 235 56 60 134 257 337 30 16 334 285 243 245 266 285 273 262 296 317 300 271 265 311 309 283 308 341 327 345 25 63 90 108 98 94 113 118 117 116 116 120
52 351 344 354 6 6 12 37 41 67 82 94 103 117 129 118 114 109 89 75 22 336 339 342 109 20 337 334 348 360 132 36 106 319 350 17 5 1 49 100 71 15 283 215 61 329 277 261 232 33 24 54 39 325 7 92 330 312 261 230 240 278 284 276 305 326 318 302 64 22 335 289 313 341 266 333 37 64 82 99 105 99 103 109 107 109 105 91
25 328 337 347 355 2 10 42 32 58 76 81 109 138 144 132 110 109 95 65 18 314 343 357 38 359 342 342 343 356 87 346 318 13 11 12 2 128 40 330 53 8 263 208 342 275 288 337 50 75 21 32 36 334 266 129 26 315 257 205 227 274 290 288 303 323 304 291 298 73 311 269 299 320 259 32 78 90 84 94 110 108 106 107 105 112 104 75
359 321 333 342 350 0 11 119 28 47 78 104 135 147 153 129 109 109 70 43 1 301 344 332 328 2 349 337 343 58 77 316 320 39 24 10 352 135 48 349 4 343 269 88 10 277 266 339 17 49 36 20 3 328 247 140 72 283 239 143 300 296 288 286 293 271 263 298 320 109 174 260 286 287 287 86 110 111 93 97 111 112 107 109 110 108 91 71
340 317 322 337 349 8 40 73 49 75 94 125 140 147 156 133 130 94 76 68 341 328 23 307 320 355 343 343 9 67 86 316 9 354 354 19 14 27 46 5 42 291 319 71 2 283 254 327 327 4 19 341 272 262 181 141 172 266 256 280 286 282 278 278 279 267 278 342 314 296 135 262 275 273 333 76 119 147 147 133 138 133 118 112 113 97 78 64
344 321 321 334 341 5 36 48 82 106 105 108 104 137 156 119 82 63 74 106 314 354 172 317 341 338 343 357 11 35 354 358 55 322 341 26 18 20 66 316 136 165 339 63 319 274 256 234 224 148 227 253 253 246 172 156 236 277 302 297 275 263 267 274 271 280 333 33 280 284 144 225 285 293 67 77 133 194 180 158 156 138 121 119 111 82 68 57
359 336 325 326 321 330 6 55 97 118 116 106 108 141 145 77 57 66 55 160 338 329 263 15 2 338 5 13 349 356 19 1 318 330 354 22 355 12 77 223 84 103 340 10 309 270 298 301 194 143 201 218 272 276 195 181 243 315 353 326 304 287 284 4 330 352 2 263 256 267 206 145 295 292 129 286 251 184 155 142 144 126 121 131 99 69 62 50
16 7 350 336 308 260 264 107 117 133 125 118 134 127 109 35 59 88 83 275 322 329 358 16 347 4 26 34 349 344 9 337 327 9 12 355 357 8 27 16 29 46 352 348 327 298 330 11 185 275 253 156 14 324 268 214 322 13 9 343 329 316 351 17 355 39 8 278 259 252 249 132 263 286 71 22 3 102 119 131 142 140 151 148 90 67 60 42
28 23 20 22 55 169 144 135 137 135 130 140 133 87 77 27 29 85 283 318 336 331 7 334 319 3 4 10 1 334 337 332 351 51 35 6 37 18 22 34 352 8 1 339 330 321 325 321 276 312 318 97 22 337 325 353 29 18 1 14 2 337 353 346 326 350 283 280 268 195 341 287 256 298 80 87 61 82 106 126 135 139 146 111 68 52 39 20
44 40 42 48 57 68 86 118 133 121 141 154 112 56 74 79 36 254 274 326 8 335 2 273 311 337 333 354 356 328 329 327 348 37 79 100 67 20 357 25 27 32 3 325 336 342 328 310 320 345 348 52 46 351 324 329 350 346 356 52 18 348 338 314 304 310 287 291 286 140 68 297 282 335 98 120 106 113 116 112 116 99 75 64 58 39 3 334
59 56 56 55 56 56 65 88 105 115 146 129 83 51 64 79 214 230 281 279 289 341 13 119 318 331 22 34 335 323 356 332 344 15 6 25 45 13 341 354 22 60 113 328 348 348 329 310 320 353 332 356 13 284 263 285 312 310 179 137 15 204 264 284 271 286 297 298 301 35 59 264 279 330 138 144 139 121 101 98 93 69 47 32 36 5 332 313
67 59 54 48 44 42 47 68 96 142 150 86 65 62 81 142 234 193 249 262 291 338 322 315 2 17 6 337 316 357 34 302 339 18 18 32 49 14 352 337 357 48 66 2 329 292 279 266 267 291 287 18 347 271 170 5 318 283 154 79 343 186 190 260 251 251 281 292 292 300 235 222 205 341 208 150 128 92 90 84 62 48 18 337 328 317 308 291
75 56 47 36 26 22 26 57 151 163 141 85 65 58 128 194 216 162 202 278 13 315 312 330 32 42 340 318 330 359 23 271 327 7 8 53 137 280 336 280 315 37 70 67 299 317 320 274 280 316 330 13 234 246 110 36 310 307 4 304 263 178 150 256 279 286 330 300 288 294 294 293 60 283 223 164 102 77 81 55 17 358 338 316 293 278 278 272
118 52 44 26 14 8 12 23 172 150 98 79 81 95 197 205 141 159 199 21 227 125 63 31 17 22 325 312 313 320 342 325 336 7 350 356 94 260 335 289 250 57 107 175 263 272 256 281 293 320 311 280 210 219 303 27 124 69 305 283 270 138 104 122 285 316 325 293 285 298 301 301 314 282 218 159 35 30 50 42 337 283 278 290 277 267 268 269
223 76 55 15 4 1 21 65 127 116 81 68 78 123 183 174 83 164 171 124 222 52 71 101 247 23 226 262 294 301 336 351 351 10 358 335 343 122 91 345 350 91 358 123 256 272 182 288 303 316 257 289 323 50 337 331 37 186 250 291 33 330 316 3 325 305 302 293 290 298 299 289 273 270 195 29 359 356 348 355 341 317 313 304 297 295 293 298
222 87 42 358 357 6 37 90 103 70 70 76 85 136 148 143 266 221 185 152 126 79 75 170 243 24 197 197 268 299 337 1 345 354 27 5 335 102 98 9 323 14 344 115 177 257 138 272 295 291 270 303 340 25 341 319 327 342 315 336 52 205 256 275 293 291 296 296 298 303 305 290 234 252 130 57 356 349 339 341 340 327 321 313 310 310 311 313
39 88 346 348 1 42 67 73 69 48 65 106 157 155 79 160 236 276 232 204 148 108 87 199 176 7 297 264 278 294 332 5 294 331 2 2 329 353 65 58 315 319 329 69 138 269 2 172 268 288 314 343 340 327 312 303 311 342 339 317 314 294 269 278 278 149 295 297 303 309 304 289 200 164 115 96 355 339 326 315 309 311 311 310 309 311 313 312
57 89 323 346 358 155 73 59 54 45 83 96 119 122 51 142 146 341 334 2 265 200 150 161 155 134 263 337 335 255 309 321 251 293 294 319 351 346 13 96 226 315 351 32 40 346 331 194 258 296 327 333 294 271 247 230 218 220 236 249 267 278 323 321 307 305 141 277 288 295 296 297 79 125 127 131 176 218 288 285 298 311 310 311 314 314 315 313
66 98 315 348 18 112 67 57 28 36 95 78 66 117 49 93 104 1 346 26 357 246 56 114 144 150 169 243 308 215 292 300 254 29 269 250 214 264 319 72 150 326 18 343 309 263 189 119 268 278 270 268 275 289 65 137 158 152 206 215 206 249 5 305 292 301 303 279 280 277 285 300 47 134 141 144 154 161 300 303 315 321 318 320 324 322 320 317
87 148 339 354 346 113 64 63 343 22 71 65 349 84 22 71 108 15 317 13 333 217 25 42 190 93 163 226 242 183 276 242 206 214 242 248 254 248 272 212 161 34 37 343 314 303 64 66 326 290 265 258 271 326 67 50 70 59 292 285 184 293 294 216 247 302 309 276 295 291 287 303 96 160 172 116 63 1 345 336 330 327 327 329 329 326 325 322
126 175 9 13 356 199 82 98 135 58 79 29 54 34 351 72 127 41 316 304 322 135 76 3 226 44 43 129 109 202 286 325 230 281 34 224 248 308 197 211 201 34 37 15 334 336 320 358 356 333 328 321 323 350 350 308 1 344 283 276 196 299 319 284 265 328 305 263 295 298 292 308 10 285 313 359 3 347 340 336 332 329 328 330 329 326 324 321
82 143 319 17 38 71 101 147 143 129 145 98 76 33 354 49 144 200 163 208 236 159 136 6 34 76 64 58 28 318 306 296 253 324 17 267 264 348 22 251 354 56 19 341 335 319 285 262 94 43 328 321 321 322 317 317 329 315 288 299 311 318 322 310 315 331 303 299 309 293 290 306 322 322 332 353 350 337 333 331 330 329 328 328 327 323 320 321
88 67 321 356 28 55 76 104 100 110 146 126 86 18 47 83 289 276 144 154 204 149 122 350 43 58 39 39 6 324 305 277 272 337 346 270 275 307 316 347 28 52 3 1 17 58 75 280 206 182 211 259 273 279 295 313 317 306 303 309 314 319 340 359 344 316 300 308 310 300 306 312 317 327 341 348 340 331 327 328 329 328 328 326 323 320 323 327
97 89 69 354 9 39 41 22 47 85 142 135 109 150 154 107 304 308 138 189 161 135 107 64 79 60 30 26 17 287 286 327 358 318 278 246 269 294 296 97 52 5 335 358 8 73 77 305 255 205 221 246 261 275 290 303 297 291 297 304 309 319 346 17 316 292 304 316 308 312 320 315 316 335 350 338 333 330 327 329 329 327 326 324 321 323 327 329
71 136 170 117 80 70 46 32 70 81 71 87 110 128 124 66 340 178 201 311 55 109 130 50 13 16 192 213 49 295 313 346 343 282 300 307 309 336 351 30 39 335 348 9 352 95 116 262 255 216 253 262 268 279 286 290 281 278 290 302 311 322 338 338 287 276 297 306 301 311 317 313 319 346 344 332 329 328 327 327 325 324 324 324 325 328 329 326
81 114 345 20 91 138 127 66 99 84 61 65 92 105 143 145 154 204 215 39 17 340 70 52 323 319 210 199 126 123 303 342 318 287 269 322 321 356 353 325 311 330 24 24 342 109 139 263 268 258 284 283 281 279 280 286 285 290 304 319 329 324 318 310 288 287 301 299 300 310 313 315 336 346 331 326 325 324 324 325 326 328 327 327 329 330 330 327
138 144 142 63 72 85 45 39 74 78 48 44 79 97 153 157 170 225 201 111 65 327 29 27 291 295 223 178 160 205 226 190 228 257 200 106 316 274 217 255 267 333 5 51 327 356 49 292 320 36 314 296 289 284 290 296 293 303 324 341 350 341 334 335 323 320 319 310 310 319 318 317 337 332 322 324 328 327 326 328 330 329 327 329 332 332 332 332
107 128 137 110 70 358 7 32 61 87 50 5 112 161 190 188 189 171 148 170 150 187 199 229 271 294 47 154 196 237 234 187 206 233 194 176 247 219 204 219 194 335 347 15 346 357 27 306 347 37 340 297 300 323 324 315 310 337 10 359 353 354 350 343 332 326 323 317 321 330 328 320 327 328 326 329 331 328 328 331 329 326 329 335 337 335 334 333
100 95 113 104 80 350 16 35 31 82 101 319 146 162 215 213 203 136 110 319 73 171 209 194 183 283 344 275 237 237 226 196 209 230 197 177 214 215 224 225 184 236 305 48 5 354 89 356 330 15 328 299 316 333 320 313 328 9 28 359 351 349 340 332 327 325 325 328 333 333 327 327 332 333 330 329 329 329 330 330 325 324 335 342 340 337 335 333